BRX7683 ENVA-ESUT

Flight info

Callsign BRX7683
Flight time 0h 40m
Altitude 27000
Route SOLKA T64 NETAV N150 VESER DCT BALNU
Aircraft E145/M-SABDFGRW/S

Departure

Time 2026-04-11 02:21
Airport Trondheim Airport, Værnes (ENVA)

Arrival

Time 2026-04-11 03:01
Airport Hemavan Airport (ESUT)
Time Latitude Longitude Altitude Speed Heading
2026-04-11 00:45 63.45299 10.91268 9 ft 0 kts 90°
2026-04-11 02:09 63.45299 10.91269 9 ft 0 kts 90°
2026-04-11 02:09 63.45299 10.91266 9 ft 1 kts 90°
2026-04-11 02:09 63.45299 10.91234 9 ft 2 kts 90°
2026-04-11 02:10 63.45299 10.91212 9 ft 2 kts 88°
2026-04-11 02:10 63.45296 10.91181 9 ft 2 kts 59°
2026-04-11 02:10 63.45286 10.91156 9 ft 2 kts 33°
2026-04-11 02:10 63.45272 10.91144 9 ft 2 kts
2026-04-11 02:11 63.45266 10.91143 9 ft 0 kts
2026-04-11 02:14 63.45267 10.91143 9 ft 0 kts
2026-04-11 02:14 63.45294 10.91143 9 ft 7 kts
2026-04-11 02:15 63.45364 10.91142 9 ft 11 kts
2026-04-11 02:15 63.45451 10.91143 9 ft 13 kts
2026-04-11 02:15 63.45546 10.91145 9 ft 12 kts
2026-04-11 02:15 63.45598 10.91077 9 ft 10 kts 271°
2026-04-11 02:16 63.45598 10.90892 7 ft 13 kts 271°
2026-04-11 02:16 63.45599 10.90686 5 ft 12 kts 270°
2026-04-11 02:16 63.45600 10.90468 5 ft 16 kts 270°
2026-04-11 02:16 63.45600 10.90200 5 ft 18 kts 270°
2026-04-11 02:17 63.45601 10.89892 5 ft 20 kts 270°
2026-04-11 02:17 63.45601 10.89548 5 ft 23 kts 269°
2026-04-11 02:17 63.45600 10.89184 5 ft 23 kts 270°
2026-04-11 02:17 63.45607 10.88851 5 ft 17 kts 287°
2026-04-11 02:18 63.45664 10.88693 5 ft 1 kts 332°
2026-04-11 02:19 63.45665 10.88692 5 ft 0 kts 334°
2026-04-11 02:19 63.45673 10.88686 5 ft 3 kts 344°
2026-04-11 02:19 63.45737 10.88676 5 ft 11 kts
2026-04-11 02:20 63.45766 10.88796 5 ft 1 kts 90°
2026-04-11 02:20 63.45766 10.88850 5 ft 19 kts 90°
2026-04-11 02:20 63.45763 10.89814 5 ft 99 kts 89°
2026-04-11 02:20 63.45761 10.91728 171 ft 135 kts 94°
2026-04-11 02:21 63.45772 10.93838 822 ft 139 kts 94°
2026-04-11 02:21 63.45793 10.95935 1542 ft 142 kts 97°
2026-04-11 02:21 63.45770 10.98415 1786 ft 179 kts 98°
2026-04-11 02:21 63.45738 11.01539 1825 ft 223 kts 94°
2026-04-11 02:22 63.45721 11.08690 3395 ft 235 kts 98°
2026-04-11 02:22 63.45707 11.12365 4143 ft 242 kts 98°
2026-04-11 02:22 63.45694 11.16191 4915 ft 248 kts 98°
2026-04-11 02:23 63.45680 11.20060 5646 ft 255 kts 98°
2026-04-11 02:23 63.45665 11.24013 6352 ft 262 kts 99°
2026-04-11 02:23 63.45648 11.28118 7088 ft 267 kts 98°
2026-04-11 02:23 63.45629 11.32240 7875 ft 269 kts 98°
2026-04-11 02:24 63.45387 11.36288 8623 ft 260 kts 116°
2026-04-11 02:24 63.44745 11.39971 9392 ft 259 kts 118°
2026-04-11 02:24 63.44087 11.43731 10093 ft 263 kts 118°
2026-04-11 02:24 63.43410 11.47568 10643 ft 273 kts 117°
2026-04-11 02:25 63.42674 11.51723 10646 ft 302 kts 116°
2026-04-11 02:25 63.41885 11.56197 11013 ft 315 kts 116°
2026-04-11 02:25 63.41083 11.60721 11700 ft 317 kts 116°
2026-04-11 02:25 63.40286 11.65206 12308 ft 317 kts 117°
2026-04-11 02:26 63.39489 11.69674 12945 ft 319 kts 117°
2026-04-11 02:26 63.38658 11.74328 13566 ft 323 kts 116°
2026-04-11 02:26 63.37831 11.78945 14144 ft 325 kts 116°
2026-04-11 02:26 63.36998 11.83586 14734 ft 327 kts 116°
2026-04-11 02:27 63.36150 11.88298 15280 ft 329 kts 116°
2026-04-11 02:27 63.35297 11.93028 15825 ft 332 kts 116°
2026-04-11 02:27 63.34443 11.97747 16366 ft 334 kts 116°
2026-04-11 02:27 63.33793 12.02782 16854 ft 344 kts 100°
2026-04-11 02:28 63.34055 12.08072 17352 ft 358 kts 77°
2026-04-11 02:28 63.35272 12.13008 17816 ft 372 kts 56°
2026-04-11 02:28 63.36888 12.17515 18309 ft 373 kts 57°
2026-04-11 02:28 63.38401 12.22101 18794 ft 374 kts 59°
2026-04-11 02:29 63.39925 12.26849 19287 ft 376 kts 59°
2026-04-11 02:29 63.41425 12.31581 19689 ft 380 kts 59°
2026-04-11 02:29 63.42947 12.36410 20093 ft 383 kts 59°
2026-04-11 02:29 63.44482 12.41292 20594 ft 384 kts 59°
2026-04-11 02:30 63.46010 12.46167 20999 ft 387 kts 59°
2026-04-11 02:30 63.47541 12.51063 21444 ft 389 kts 59°
2026-04-11 02:30 63.49103 12.56070 21835 ft 392 kts 59°
2026-04-11 02:30 63.50649 12.61033 22272 ft 394 kts 59°
2026-04-11 02:31 63.52212 12.66067 22662 ft 396 kts 59°
2026-04-11 02:31 63.53814 12.71232 23113 ft 398 kts 60°
2026-04-11 02:31 63.55384 12.76310 23478 ft 401 kts 60°
2026-04-11 02:31 63.56972 12.81457 23943 ft 401 kts 60°
2026-04-11 02:32 63.58556 12.86602 24488 ft 399 kts 60°
2026-04-11 02:32 63.60107 12.91650 25035 ft 396 kts 60°
2026-04-11 02:32 63.61660 12.96720 25549 ft 395 kts 59°
2026-04-11 02:32 63.63213 13.01798 26042 ft 394 kts 60°
2026-04-11 02:33 63.64762 13.06872 26532 ft 394 kts 60°
2026-04-11 02:33 63.66320 13.11991 26994 ft 395 kts 60°
2026-04-11 02:33 63.67922 13.17272 27060 ft 402 kts 59°
2026-04-11 02:33 63.69520 13.22545 27036 ft 411 kts 60°
2026-04-11 02:34 63.71142 13.27913 27051 ft 418 kts 59°
2026-04-11 02:34 63.72786 13.33362 27043 ft 425 kts 59°
2026-04-11 02:34 63.74485 13.39012 27042 ft 431 kts 59°
2026-04-11 02:34 63.76172 13.44632 27031 ft 437 kts 59°
2026-04-11 02:35 63.77890 13.50374 27006 ft 442 kts 59°
2026-04-11 02:35 63.79597 13.56087 27017 ft 446 kts 59°
2026-04-11 02:35 63.81354 13.61990 27033 ft 450 kts 59°
2026-04-11 02:35 63.83104 13.67879 27034 ft 454 kts 60°
2026-04-11 02:36 63.84858 13.73806 27057 ft 456 kts 60°
2026-04-11 02:36 63.86618 13.79764 27049 ft 460 kts 60°
2026-04-11 02:36 63.88399 13.85812 27061 ft 462 kts 60°
2026-04-11 02:36 63.90181 13.91880 27060 ft 464 kts 60°
2026-04-11 02:37 63.91985 13.98038 27071 ft 466 kts 60°
2026-04-11 02:37 63.93756 14.04099 27062 ft 469 kts 60°
2026-04-11 02:37 63.95559 14.10289 27088 ft 469 kts 60°
2026-04-11 02:37 63.97404 14.16458 27083 ft 468 kts 56°
2026-04-11 02:38 63.99540 14.22009 27089 ft 469 kts 47°
2026-04-11 02:38 64.01992 14.26825 27099 ft 470 kts 40°
2026-04-11 02:38 64.04730 14.30842 27083 ft 472 kts 31°
2026-04-11 02:38 64.07719 14.33992 27084 ft 472 kts 25°
2026-04-11 02:39 64.10697 14.37181 27077 ft 469 kts 28°
2026-04-11 02:39 64.13506 14.40367 27087 ft 468 kts 28°
2026-04-11 02:39 64.16418 14.43727 27065 ft 467 kts 29°
2026-04-11 02:39 64.19293 14.47068 27073 ft 467 kts 29°
2026-04-11 02:40 64.22208 14.50466 27067 ft 468 kts 29°
2026-04-11 02:40 64.25079 14.53821 27087 ft 468 kts 28°
2026-04-11 02:40 64.27981 14.57220 27068 ft 469 kts 28°
2026-04-11 02:40 64.30898 14.60645 27086 ft 469 kts 28°
2026-04-11 02:41 64.33781 14.64038 27084 ft 469 kts 28°
2026-04-11 02:41 64.36716 14.67502 27079 ft 470 kts 30°
2026-04-11 02:41 64.39603 14.70917 27073 ft 470 kts 30°
2026-04-11 02:41 64.42533 14.74390 27094 ft 470 kts 30°
2026-04-11 02:42 64.45430 14.77833 27083 ft 470 kts 30°
2026-04-11 02:42 64.48332 14.81292 27079 ft 470 kts 29°
2026-04-11 02:42 64.51246 14.84769 27088 ft 469 kts 29°
2026-04-11 02:42 64.54051 14.88124 27076 ft 445 kts 30°
2026-04-11 02:43 64.56749 14.91360 26704 ft 426 kts 30°
2026-04-11 02:43 64.59368 14.94511 25708 ft 424 kts 30°
2026-04-11 02:43 64.61953 14.97626 24765 ft 420 kts 30°
2026-04-11 02:43 64.64532 15.00740 23953 ft 414 kts 30°
2026-04-11 02:44 64.67066 15.03807 23116 ft 408 kts 30°
2026-04-11 02:44 64.69553 15.06824 22231 ft 405 kts 29°
2026-04-11 02:44 64.72033 15.09836 21324 ft 403 kts 30°
2026-04-11 02:44 64.74515 15.12857 20565 ft 396 kts 29°
2026-04-11 02:45 64.76907 15.15777 19672 ft 395 kts 29°
2026-04-11 02:45 64.79365 15.18782 19060 ft 398 kts 29°
2026-04-11 02:45 64.81776 15.21733 18815 ft 388 kts 29°
2026-04-11 02:45 64.84142 15.24638 18296 ft 384 kts 29°
2026-04-11 02:46 64.86485 15.27521 17686 ft 385 kts 29°
2026-04-11 02:46 64.88868 15.30457 17250 ft 383 kts 29°
2026-04-11 02:46 64.91202 15.33337 16854 ft 376 kts 29°
2026-04-11 02:46 64.93478 15.36154 16153 ft 372 kts 30°
2026-04-11 02:47 64.95758 15.38981 15331 ft 371 kts 30°
2026-04-11 02:47 64.98016 15.41785 14565 ft 369 kts 30°
2026-04-11 02:47 65.00268 15.44586 13895 ft 367 kts 30°
2026-04-11 02:47 65.02504 15.47375 13437 ft 362 kts 30°
2026-04-11 02:48 65.04719 15.50144 12929 ft 359 kts 30°
2026-04-11 02:48 65.06896 15.52867 12384 ft 356 kts 30°
2026-04-11 02:48 65.09077 15.55602 11794 ft 353 kts 29°
2026-04-11 02:48 65.11227 15.58303 11256 ft 352 kts 29°
2026-04-11 02:49 65.13370 15.61000 10901 ft 344 kts 29°
2026-04-11 02:49 65.15420 15.63581 10891 ft 322 kts 29°
2026-04-11 02:49 65.17332 15.65969 10803 ft 304 kts 27°
2026-04-11 02:49 65.19368 15.67099 10369 ft 303 kts 359°
2026-04-11 02:50 65.21395 15.66093 9874 ft 301 kts 339°
2026-04-11 02:50 65.23368 15.64523 9472 ft 299 kts 339°
2026-04-11 02:50 65.25342 15.62980 9071 ft 297 kts 339°
2026-04-11 02:50 65.27309 15.61445 8723 ft 296 kts 339°
2026-04-11 02:51 65.29242 15.59937 8360 ft 292 kts 339°
2026-04-11 02:51 65.31162 15.58439 7881 ft 292 kts 339°
2026-04-11 02:51 65.33078 15.56941 7440 ft 290 kts 339°
2026-04-11 02:51 65.34985 15.55447 7026 ft 289 kts 339°
2026-04-11 02:52 65.36886 15.53956 6589 ft 288 kts 339°
2026-04-11 02:52 65.38781 15.52467 6179 ft 285 kts 339°
2026-04-11 02:52 65.40646 15.51000 5832 ft 281 kts 339°
2026-04-11 02:52 65.42487 15.49550 5471 ft 277 kts 340°
2026-04-11 02:53 65.44307 15.48114 5108 ft 274 kts 340°
2026-04-11 02:53 65.46117 15.46684 4744 ft 271 kts 340°
2026-04-11 02:53 65.47875 15.45295 4579 ft 260 kts 341°
2026-04-11 02:53 65.49516 15.43997 4623 ft 239 kts 340°
2026-04-11 02:54 65.51029 15.42798 4566 ft 220 kts 340°
2026-04-11 02:54 65.52464 15.41970 4568 ft 204 kts 345°
2026-04-11 02:54 65.53767 15.40996 4570 ft 190 kts 339°
2026-04-11 02:54 65.54958 15.39956 4568 ft 178 kts 338°
2026-04-11 02:55 65.56145 15.38897 4596 ft 188 kts 335°
2026-04-11 02:55 65.57360 15.37417 4597 ft 200 kts 330°
2026-04-11 02:55 65.58601 15.35826 4591 ft 203 kts 329°
2026-04-11 02:55 65.59851 15.34282 4591 ft 205 kts 329°
2026-04-11 02:56 65.61134 15.32658 4585 ft 208 kts 329°
2026-04-11 02:56 65.62391 15.31087 4582 ft 193 kts 329°
2026-04-11 02:56 65.63460 15.29777 4524 ft 158 kts 329°
2026-04-11 02:56 65.64388 15.28610 4566 ft 149 kts 329°
2026-04-11 02:57 65.65304 15.27463 4571 ft 149 kts 328°
2026-04-11 02:57 65.66218 15.26322 4561 ft 148 kts 328°
2026-04-11 02:57 65.67147 15.25162 4393 ft 148 kts 329°
2026-04-11 02:57 65.68047 15.24037 4209 ft 147 kts 330°
2026-04-11 02:58 65.68974 15.22877 4014 ft 150 kts 330°
2026-04-11 02:58 65.69898 15.21724 3809 ft 148 kts 331°
2026-04-11 02:58 65.70794 15.20604 3602 ft 144 kts 331°
2026-04-11 02:58 65.71677 15.19498 3403 ft 143 kts 332°
2026-04-11 02:59 65.72550 15.18405 3205 ft 141 kts 333°
2026-04-11 02:59 65.73440 15.17291 3014 ft 144 kts 332°
2026-04-11 02:59 65.74322 15.16183 2814 ft 143 kts 334°
2026-04-11 02:59 65.75203 15.15080 2610 ft 141 kts 333°
2026-04-11 03:00 65.76071 15.13988 2416 ft 142 kts 332°
2026-04-11 03:00 65.76925 15.12859 2205 ft 138 kts 330°
2026-04-11 03:00 65.77786 15.11819 2048 ft 139 kts 336°
2026-04-11 03:00 65.78636 15.10747 1829 ft 137 kts 332°
2026-04-11 03:01 65.79462 15.09701 1652 ft 132 kts 334°
2026-04-11 03:01 65.80286 15.08683 1506 ft 125 kts 330°
2026-04-11 03:01 65.80798 15.08029 1506 ft 31 kts 332°
2026-04-11 03:01 65.80885 15.07914 1505 ft 13 kts 325°
2026-04-11 03:02 65.80926 15.07876 1505 ft 3 kts 114°
2026-04-11 03:02 65.80888 15.07927 1506 ft 10 kts 155°
2026-04-11 03:02 65.80865 15.07954 1506 ft 0 kts 156°
2026-04-11 03:02 65.80868 15.07935 1506 ft 6 kts 330°
2026-04-11 03:03 65.80968 15.07818 1504 ft 20 kts 333°
2026-04-11 03:03 65.81080 15.07677 1503 ft 11 kts 334°
2026-04-11 03:03 65.81139 15.07688 1503 ft 10 kts 60°
2026-04-11 03:03 65.81171 15.07843 1503 ft 8 kts 62°
2026-04-11 03:04 65.81176 15.07863 1503 ft 0 kts 63°
2026-04-11 03:04 65.81177 15.07871 1503 ft 2 kts 63°
2026-04-11 03:04 65.81189 15.07923 1504 ft 3 kts 62°
2026-04-11 03:04 65.81196 15.07955 1505 ft 1 kts 62°